AirNav   Everest Fuels
 
 510 users online  

6M6 Lewis County Regional Airport
Monticello, Missouri, USA

GOING TO MONTICELLO?


FAA INFORMATION EFFECTIVE 10 SEPTEMBER 2020

Location

FAA Identifier: 6M6
Lat/Long: 40-07-45.0350N 091-40-41.7700W
40-07.750583N 091-40.696167W
40.1291764,-91.6782694
(estimated)
Elevation: 675 ft. / 205.7 m (surveyed)
Variation: 01E (2000)
From city: 2 miles NE of MONTICELLO, MO
Time zone: UTC -5 (UTC -6 during Standard Time)
Zip code: 63457

Airport Operations

Airport use: Open to the public
Activation date: 07/1992
Control tower: no
ARTCC: KANSAS CITY CENTER
FSS: SAINT LOUIS FLIGHT SERVICE STATION
NOTAMs facility: STL (NOTAM-D service available)
Attendance: UNATNDD
Wind indicator: lighted
Segmented circle: yes
Lights: ACTVT MIRL RY 18/36 - CTAF.
Beacon: white-green (lighted land airport)
Operates sunset to sunrise.

Airport Communications

CTAF/UNICOM: 122.7
  • UNICOM UNMONITORED.
  • APCH/DEP SVC PRVDD BY KANSAS CITY ARTCC ON FREQS 126.225/317.775 (QUINCY RCAG).

Nearby radio navigation aids

VOR radial/distance  VOR name  Freq  Var
UINr308/24.9QUINCY VORTAC113.6005E

 
NDB name  Hdg/Dist  Freq  Var  ID
KEOKUK207/23.036602EEOK . --- -.-

Airport Services

Fuel available: 100LL
Parking: tiedowns

Runway Information

Runway 18/36

Dimensions: 3500 x 60 ft. / 1067 x 18 m
Surface: concrete, in good condition
Weight bearing capacity: 
Single wheel: 30.0
Runway edge lights: medium intensity
RUNWAY 18  RUNWAY 36
Latitude: 40-08.038667N40-07.462500N
Longitude: 091-40.687000W091-40.705333W
Elevation: 664.6 ft.674.9 ft.
Traffic pattern: leftleft
Runway heading: 180 magnetic, 181 true000 magnetic, 001 true
Markings: nonprecision, in good conditionnonprecision, in good condition
Visual slope indicator: 2-light PAPI on left (3.00 degrees glide path)2-light PAPI on left (3.00 degrees glide path)
Runway end identifier lights: nono
Touchdown point: yes, no lightsyes, no lights

Airport Ownership and Management from official FAA records

Ownership: Publicly-owned
Owner: LEWIS COUNTY AIRPORT AUTHORITY
PO BOX 85
CANTON, MO 63435
Phone (660) 216-4801
Manager: JESSE ROGERS
P.O. BOX 135
CANTON, MO 63435
Phone (660) 216-4801
ALTERNATE PHONE NMBRS 660-216-4801, 660-341-0509.

Airport Operational Statistics

Aircraft based on the field: 4
Single engine airplanes: 4
    
Aircraft operations: avg 34/week *
71% local general aviation
28% transient general aviation
<1% military
* for 12-month period ending 31 December 2017

Additional Remarks

ULTRALIGHT ACTIVITY ON & INVOF ARPT.
FOR CD CTC KANSAS CITY ARTCC AT 913-254-8508.

Instrument Procedures

NOTE: All procedures below are presented as PDF files. If you need a reader for these files, you should download the free Adobe Reader.

NOT FOR NAVIGATION. Please procure official charts for flight.
FAA instrument procedures published for use from 10 September 2020 at 0901Z to 08 October 2020 at 0900z.

 
IAPs - Instrument Approach Procedures
RNAV (GPS) RWY 18   download (216KB)
RNAV (GPS) RWY 36   download (208KB)
VOR/DME-A   download (179KB)
NOTE: Special Take-Off Minimums/Departure Procedures apply   download (158KB)

Other nearby airports with instrument procedures:

KEOK - Keokuk Municipal Airport (23 nm NE)
KUIN - Quincy Regional Airport-Baldwin Field (25 nm SE)
KHAE - Hannibal Regional Airport (27 nm SE)
K52 - Cpt Ben Smith Airfield - Monroe City (30 nm S)
03D - Memphis Memorial Airport (32 nm NW)
 
Loc | Ops | Rwys | IFR | FBO | Links
Com | Nav | Svcs | Stats | Notes
Area around 6M6 (Lewis County Regional Airport)
 
Road maps at: MapQuest Bing Google
 
Aerial photo
No photo
 
Sectional chart

 
Airport distance calculator
Flying to Lewis County Regional Airport? Find the distance to fly.

From to 6M6

Sunrise and sunset
Times for 27-Sep-2020
 Local
(UTC-5)
 Zulu
(UTC)
Morning civil twilight06:3411:34
Sunrise07:0112:01
Sunset18:5423:54
Evening civil twilight19:2100:21

Current date and time
Zulu (UTC)  27-Sep-2020 10:55:14
Local (UTC-5)  27-Sep-2020 05:55:14
 
METAR
KEOK 
24nm NE 
271035Z AUTO 21005KT 10SM SCT065 18/17 A2975 RMK AO2
KUIN 
24nm SE 
270954Z AUTO 21008KT 10SM -RA CLR 18/15 A2976 RMK AO2 SLP071 P0000 T01830150
KHAE 
27nm SE 
271035Z AUTO 21007KT 10SM SCT037 17/16 A2979 RMK AO2
KFSW 
36nm NE 
271035Z AUTO 21004KT 10SM CLR 19/16 A2975 RMK AO2
KIRK 
40nm W 
270955Z AUTO 24006KT 10SM BKN033 OVC040 19/16 A2978 RMK AO2 SLP078 T01940161
KI63 
41nm E 
271035Z AUTO 23010G14KT 10SM CLR 19/16 A2976 RMK AO2 T01850160
KBRL 
46nm NE 
270953Z AUTO 23008KT 10SM CLR 21/16 A2973 RMK AO2 SLP061 T02060156
TAF
KUIN 
24nm SE 
270520Z 2706/2806 20013G19KT P6SM BKN250 FM271300 24009KT P6SM BKN080 FM271600 31010KT P6SM VCSH OVC050 FM272100 33014G21KT 5SM -RA BR OVC040 FM280300 VRB05KT 6SM BR BKN040
NOTAMs
Click for the latest NOTAMs
NOTAMs are issued by the DoD/FAA and will open in a separate window not controlled by AirNav.

 

 
 

FBO, Fuel Providers, and Aircraft Ground Support

  
 Business Name 
 
 Contact 
 
 Services / Description 
 
Fuel Prices
 
Comments
  
Lewis County Airport Authority no information available

If you are affiliated with Lewis County Airport Authority and would like to show here your services, contact info, web link, logo, and more, click here
100LL
AS $4.50 
 Updated 30-Jan-2020
 
   write
AS=Assisted/Self Service
Update Fuel Prices
 

Would you like to see your business listed on this page?

 If your business provides an interesting product or service to pilots, flight crews, aircraft, or users of the Lewis County Regional Airport, you should consider listing it here.  To start the listing process, click on the button below
 
Add a business
 

Other Pages about Lewis County Regional Airport

Update a link
 
Copyright © AirNav, LLC. All rights reserved. Privacy Policy  Contact